Dewpoint
2 2 3 3 3 2 2 2 2 3 3 2 2 1 1 1 -1 -1 -1 -0 -0 -0 -0 -2 -3 -4 -5 -5 -4 -4 -4 -3 0 5 5 6 8 9
1 1 2 2 2 3 2 2 2 2 3 2 1 1 2 2 1 -0 1 2 1 1 2 2 1 -0 -0 -1 -1 -1 -1 1 3 5 5 5 8 9
-0 0 -2 -0 1 2 2 2 2 2 2 1 1 1 1 1 1 2 2 2 1 1 2 2 2 1 -0 0 1 1 1 1 2 3 5 5 7 9
-12 -12 -12 -14 -11 -5 -2 1 2 2 2 2 2 2 2 2 3 3 2 2 3 3 3 2 2 2 2 1 2 4 3 2 2 1 4 5 7 8
-13 -13 -15 -17 -17 -13 -8 -6 -1 0 1 1 1 2 2 2 2 3 3 3 2 2 2 3 3 3 4 3 3 3 4 4 3 4 3 3 9 10
-17 -17 -17 -15 -13 -7 -1 -1 -0 -0 0 1 1 1 1 2 3 2 2 3 3 1 2 4 4 3 3 3 4 4 5 5 5 4 3 3 9 8
-19 -19 -18 -17 -14 -2 -1 -0 -0 0 0 1 1 1 1 2 1 2 2 2 2 3 4 4 5 5 4 3 4 4 5 5 6 5 3 8 9 8
-21 -20 -19 -17 -12 -2 -2 -1 -0 -0 -0 0 0 1 1 1 1 2 2 1 2 2 2 2 3 4 4 5 5 5 5 4 7 7 8 7 8 8
-21 -20 -19 -17 -14 -10 -6 -3 -2 -0 -0 -0 -0 0 1 1 1 1 1 1 1 1 1 2 2 3 3 3 4 6 5 5 6 7 7 7 7 7
-19 -20 -20 -19 -17 -13 -9 -5 -5 -1 -0 -0 -0 0 1 1 1 1 1 1 1 1 1 2 3 2 2 3 3 3 5 6 6 6 6 7 7 7
-16 -18 -19 -19 -18 -16 -9 -10 -14 -12 -12 -10 -5 -1 -1 0 0 0 1 1 1 1 2 2 1 1 2 3 3 2 3 4 5 6 6 6 7 6
-12 -14 -16 -18 -18 -18 -16 -16 -17 -16 -15 -17 -16 -11 -3 -1 -1 -0 -1 -0 -0 -0 1 2 2 2 2 1 2 3 3 3 3 4 5 5 6 6
-7 -7 -8 -11 -13 -16 -17 -17 -16 -16 -16 -15 -15 -14 -14 -11 -4 -2 -2 -1 -1 -1 -1 0 0 1 1 2 1 2 2 2 2 2 3 4 4 5
-5 -6 -6 -8 -11 -14 -16 -15 -16 -14 -14 -14 -14 -14 -13 -13 -10 -6 -3 -2 -2 -2 -2 -1 -2 -1 -1 -0 1 2 2 2 2 2 2 3 3 3
-3 -6 -7 -8 -11 -13 -15 -16 -16 -14 -13 -13 -14 -13 -12 -12 -12 -12 -9 -7 -4 -3 -3 -3 -3 -2 -2 -2 -2 -1 -0 0 1 1 1 1 2 2
-3 -4 -6 -7 -9 -11 -14 -15 -15 -14 -13 -12 -13 -13 -12 -11 -10 -10 -10 -9 -9 -7 -7 -6 -5 -4 -4 -4 -3 -3 -3 -2 -1 -1 -1 -0 -0 0
-4 -5 -6 -6 -7 -9 -12 -13 -13 -13 -13 -13 -12 -13 -12 -10 -10 -9 -8 -8 -7 -7 -7 -7 -7 -7 -8 -7 -7 -8 -8 -9 -9 -9 -9 -8 -6 -4
-4 -4 -4 -5 -6 -8 -10 -11 -12 -13 -14 -13 -13 -12 -12 -10 -10 -9 -9 -7 -7 -7 -7 -7 -7 -7 -7 -6 -6 -6 -7 -7 -7 -8 -8 -9 -9 -9
-4 -4 -3 -4 -5 -6 -8 -10 -12 -14 -14 -13 -12 -12 -11 -11 -10 -9 -8 -8 -7 -7 -7 -8 -7 -7 -7 -7 -7 -7 -7 -7 -7 -7 -7 -8 -8 -9
-4 -4 -4 -3 -4 -5 -7 -8 -10 -11 -12 -13 -12 -11 -11 -11 -10 -9 -9 -8 -8 -8 -8 -8 -8 -8 -8 -8 -8 -8 -8 -8 -7 -7 -7 -8 -10 -10
-4 -4 -4 -3 -3 -4 -5 -7 -8 -7 -7 -9 -12 -11 -11 -11 -10 -10 -9 -8 -8 -8 -8 -8 -8 -8 -8 -8 -8 -8 -8 -8 -8 -8 -8 -10 -11 -11
-4 -4 -4 -4 -3 -3 -4 -5 -7 -6 -8 -8 -8 -10 -10 -11 -11 -10 -9 -9 -9 -8 -9 -8 -8 -8 -8 -8 -8 -8 -8 -8 -8 -8 -9 -10 -10 -10
-4 -4 -4 -3 -3 -3 -4 -5 -6 -6 -7 -8 -11 -10 -10 -11 -11 -11 -11 -10 -9 -9 -9 -9 -9 -9 -9 -8 -8 -8 -8 -8 -9 -9 -10 -10 -10 -10
Wind_Speed
15 18 17 18 17 15 16 18 21 27 29 27 29 28 25 22 19 18 18 19 21 23 25 29 32 33 35 36 39 40 41 43 45 48 51 53 53 55
15 16 17 18 19 21 21 21 21 25 32 31 31 31 28 28 25 20 19 21 22 22 22 26 29 32 32 34 36 37 37 39 41 45 48 49 44 40
17 20 19 19 21 22 23 25 26 27 34 38 35 32 32 28 23 22 18 20 20 21 23 23 24 29 35 34 35 37 39 41 41 43 44 50 53 50
18 17 18 20 21 23 25 26 27 27 27 35 37 38 32 26 26 26 22 21 22 21 24 25 26 30 29 32 33 32 36 37 42 46 36 50 44 45
20 21 23 22 21 20 19 19 19 20 22 25 30 28 28 26 26 27 26 25 23 23 21 20 23 24 23 27 30 33 35 37 37 37 41 37 40 42
19 20 20 20 19 16 17 20 19 21 24 25 29 30 27 25 24 25 27 26 29 25 17 16 19 21 23 28 31 32 34 37 39 40 36 40 35 24
19 19 19 20 19 15 14 17 18 21 23 25 28 26 25 25 26 26 27 29 31 23 21 20 22 20 22 24 25 29 31 28 30 39 35 31 32 25
20 19 19 19 17 15 16 18 19 23 25 25 28 30 31 29 29 28 28 29 31 24 23 29 22 24 21 20 18 20 21 23 16 8 17 19 18 19
20 19 20 19 18 18 18 18 19 18 20 22 25 24 26 24 24 31 32 31 29 27 27 30 20 21 21 21 23 19 12 18 14 2 3 12 18 20
20 20 20 20 20 19 19 21 18 18 20 21 22 24 25 28 29 31 31 31 30 26 24 26 23 21 23 22 19 21 17 8 10 8 2 6 8 11
20 20 20 20 20 18 18 22 20 18 19 21 21 23 25 27 27 28 27 26 28 24 21 24 26 25 24 24 21 19 18 17 9 4 2 2 3 7
20 20 19 19 18 18 18 20 21 19 20 19 17 19 21 22 23 24 24 23 23 23 18 17 19 18 14 20 18 17 17 16 18 19 13 9 7 9
23 20 19 20 19 19 19 20 20 20 20 21 20 20 20 20 21 20 21 20 21 23 21 20 20 19 16 18 20 20 17 15 17 17 16 17 15 16
27 22 21 21 21 20 20 20 20 20 20 20 21 20 20 20 21 21 21 20 19 21 19 18 17 17 17 18 17 17 16 16 15 16 18 18 16 16
29 24 24 23 22 21 20 21 22 21 20 21 20 19 19 18 18 18 18 18 19 18 17 16 16 17 17 17 16 16 15 15 15 16 17 18 18 19
30 27 26 25 24 23 21 21 21 21 21 22 21 20 19 18 16 16 16 14 13 13 14 15 16 16 16 16 17 15 14 12 11 13 15 17 18 19
28 29 30 29 26 24 23 21 21 21 21 19 20 19 17 17 15 14 13 11 10 10 10 10 12 12 12 12 14 13 13 13 14 13 14 14 16 18
27 33 33 32 28 25 23 22 22 21 20 20 18 17 16 14 13 13 12 11 11 9 9 8 8 9 7 7 7 8 8 7 8 9 11 12 10 13
30 31 34 33 27 23 23 23 22 19 19 19 17 15 15 14 13 13 11 11 10 10 10 8 7 7 8 7 8 7 9 8 10 12 12 12 11 9
32 35 37 33 27 22 21 22 21 20 20 17 16 15 14 13 13 13 12 11 9 8 8 8 7 7 8 9 9 9 11 8 10 12 12 8 8 6
35 34 37 33 26 22 21 22 21 21 20 19 16 14 13 13 13 13 12 10 9 12 13 10 9 9 10 11 11 8 8 11 16 15 7 4 3 4
34 35 34 30 27 22 21 23 22 22 21 18 15 16 14 13 12 12 12 11 12 12 12 10 9 9 9 9 9 9 11 13 9 7 4 4 4 3
31 33 33 29 27 24 23 23 23 22 20 18 17 15 13 12 11 10 10 12 12 11 11 10 9 9 8 7 8 11 10 7 3 4 4 4 5 7
Wind_Direction
283 280 284 282 274 283 286 287 290 296 299 301 305 312 312 307 300 296 288 287 286 291 289 280 278 279 277 274 272 272 272 269 269 268 266 263 259 253
292 290 289 291 279 275 277 280 280 284 288 292 297 304 307 302 302 298 294 294 297 299 300 303 292 281 280 277 275 272 272 267 265 265 267 261 259 242
280 280 281 283 284 280 277 276 278 277 280 283 286 291 295 303 307 307 296 290 289 294 301 299 305 289 274 276 275 272 271 272 265 262 270 257 247 250
299 303 302 298 288 280 275 271 274 275 281 285 285 286 293 301 306 308 302 301 296 300 296 300 301 303 288 274 277 273 279 276 265 270 267 252 261 247
298 300 304 303 301 297 294 291 293 289 287 282 286 286 290 298 303 307 311 307 303 297 301 299 301 300 294 285 281 276 284 270 267 272 255 267 246 242
299 301 303 303 301 302 305 301 301 298 294 283 281 286 287 293 294 303 304 308 309 311 305 309 309 310 306 299 285 288 287 285 266 268 267 252 236 225
301 302 303 301 299 287 288 290 296 295 299 295 290 289 283 283 290 297 296 301 306 317 310 301 308 318 319 317 295 280 283 289 275 264 251 230 229 214
303 302 302 301 299 286 273 276 281 290 289 285 280 282 282 284 292 287 291 299 305 309 306 306 311 310 310 308 288 290 299 297 302 203 225 221 231 220
297 299 300 300 297 293 289 282 282 285 287 283 279 281 289 285 279 284 289 294 290 296 300 299 306 302 305 306 311 311 304 312 348 56 203 207 223 226
292 296 299 301 301 296 295 292 291 284 289 283 277 280 276 278 279 282 286 288 288 290 291 293 298 296 297 301 299 304 318 319 323 342 272 217 205 218
289 289 294 298 301 298 291 296 302 299 292 286 279 277 279 278 279 280 279 281 286 287 284 282 289 292 295 294 286 287 299 287 312 269 227 205 219 223
285 286 288 291 294 298 293 296 299 303 298 297 294 286 279 282 284 284 282 278 278 284 277 272 277 283 288 289 285 279 279 290 293 288 288 256 226 224
277 278 281 283 289 293 295 294 297 297 298 301 301 298 293 290 284 285 284 281 277 273 268 271 275 276 267 262 272 280 284 278 283 288 285 267 255 244
274 274 277 279 284 288 291 295 296 292 294 296 300 301 298 295 288 282 279 278 274 276 277 277 275 275 274 271 263 261 266 269 268 268 273 271 264 260
273 272 271 273 278 282 286 289 290 288 289 294 296 296 296 297 296 293 287 282 273 272 270 271 272 272 272 272 269 266 266 261 262 265 264 262 263 263
269 270 272 273 275 280 281 283 283 284 286 289 294 296 298 297 298 298 298 294 280 264 268 268 269 264 261 265 265 270 271 264 261 262 263 264 264 262
270 266 265 268 272 274 277 279 277 278 281 286 289 290 289 291 294 295 299 298 293 288 289 282 286 290 270 263 262 259 258 261 263 263 261 260 257 257
265 259 261 264 266 270 273 275 274 277 281 283 282 281 280 279 284 282 286 288 288 282 282 287 302 312 289 262 262 252 245 254 261 259 272 273 263 262
266 264 259 260 262 265 270 272 273 275 278 280 276 275 279 278 280 282 275 271 271 275 277 288 296 296 301 290 271 266 257 249 265 269 273 273 269 252
259 260 262 260 259 262 269 270 270 270 273 277 271 268 268 272 273 272 266 268 270 280 279 282 275 273 278 294 296 271 271 275 276 281 284 268 273 261
263 265 261 261 258 259 264 265 265 268 268 267 268 266 269 272 274 269 265 262 261 269 275 275 273 268 263 276 285 288 294 297 297 276 261 263 237 230
267 269 267 263 256 261 265 265 264 264 263 263 261 263 261 266 269 264 260 265 266 269 276 279 279 276 272 269 277 290 293 298 278 277 273 231 229 206
270 266 266 264 263 263 264 262 263 262 255 252 259 254 256 262 266 267 268 266 265 270 276 284 283 279 272 266 277 292 301 302 246 256 254 242 251 258
Height
1446 1445 1444 1443 1443 1443 1442 1441 1439 1430 1426 1425 1425 1424 1423 1422 1421 1420 1418 1418 1416 1415 1412 1410 1409 1408 1407 1407 1406 1406 1407 1407 1407 1408 1408 1410 1411 1414
1442 1440 1438 1437 1437 1437 1436 1436 1434 1431 1423 1421 1420 1419 1418 1416 1415 1414 1412 1411 1409 1407 1406 1403 1400 1398 1398 1397 1396 1396 1395 1395 1395 1396 1397 1399 1400 1402
1437 1435 1433 1432 1430 1429 1429 1428 1427 1426 1420 1415 1415 1414 1413 1410 1408 1407 1406 1404 1403 1402 1399 1397 1394 1391 1389 1388 1387 1386 1384 1383 1383 1383 1385 1387 1388 1390
1431 1429 1427 1426 1424 1423 1421 1420 1419 1418 1416 1410 1409 1407 1406 1405 1403 1401 1399 1399 1396 1395 1392 1390 1387 1383 1380 1379 1377 1375 1372 1370 1370 1370 1371 1373 1374 1377
1426 1424 1422 1419 1417 1416 1415 1413 1412 1411 1410 1406 1402 1402 1401 1401 1399 1397 1395 1392 1391 1389 1386 1384 1381 1377 1373 1370 1368 1365 1362 1359 1357 1357 1359 1359 1363 1367
1421 1419 1417 1415 1412 1410 1410 1410 1407 1406 1404 1402 1397 1396 1397 1396 1395 1393 1391 1389 1385 1382 1381 1379 1376 1372 1368 1364 1361 1358 1355 1351 1347 1346 1346 1349 1351 1355
1416 1414 1412 1410 1407 1406 1405 1404 1403 1401 1399 1397 1394 1391 1390 1390 1390 1389 1386 1383 1380 1379 1375 1373 1370 1367 1363 1357 1355 1352 1347 1341 1338 1333 1334 1338 1342 1349
1411 1410 1407 1405 1402 1401 1400 1399 1398 1396 1393 1392 1390 1387 1386 1385 1385 1382 1380 1378 1374 1372 1371 1366 1366 1362 1359 1355 1351 1347 1340 1336 1322 1322 1326 1331 1335 1341
1406 1404 1401 1399 1397 1395 1394 1393 1392 1391 1389 1386 1383 1382 1380 1380 1377 1375 1374 1373 1370 1369 1366 1360 1361 1358 1355 1353 1349 1343 1339 1333 1329 1328 1329 1330 1337 1341
1401 1399 1396 1394 1392 1389 1388 1386 1385 1384 1383 1380 1378 1376 1373 1372 1371 1369 1368 1365 1364 1363 1361 1356 1355 1353 1351 1348 1346 1343 1339 1335 1332 1331 1332 1334 1337 1341
1395 1393 1391 1389 1387 1384 1382 1380 1378 1377 1376 1374 1371 1369 1368 1365 1363 1362 1361 1359 1356 1357 1354 1351 1350 1347 1345 1342 1340 1339 1338 1336 1333 1333 1331 1332 1335 1338
1389 1387 1385 1383 1381 1378 1375 1373 1372 1371 1368 1367 1366 1364 1361 1359 1357 1355 1354 1352 1351 1350 1347 1345 1344 1343 1340 1338 1335 1334 1333 1332 1332 1329 1329 1331 1334 1336
1382 1381 1379 1377 1375 1373 1371 1368 1366 1364 1362 1361 1359 1357 1355 1353 1351 1348 1348 1346 1344 1344 1342 1339 1339 1339 1337 1335 1333 1331 1330 1330 1330 1330 1331 1331 1333 1334
1375 1375 1373 1371 1369 1367 1365 1363 1361 1358 1356 1354 1353 1352 1349 1347 1345 1343 1341 1340 1338 1337 1337 1335 1334 1334 1332 1330 1329 1328 1327 1326 1326 1327 1328 1330 1331 1332
1367 1367 1366 1364 1362 1360 1359 1357 1355 1353 1351 1349 1347 1346 1344 1342 1340 1337 1336 1333 1332 1331 1331 1330 1330 1329 1329 1327 1325 1324 1323 1323 1323 1323 1324 1325 1325 1326
1359 1359 1358 1357 1355 1354 1352 1351 1349 1347 1345 1343 1342 1340 1339 1337 1335 1334 1332 1329 1327 1327 1327 1325 1325 1324 1323 1323 1322 1321 1320 1320 1319 1319 1319 1319 1320 1321
1352 1351 1349 1348 1347 1347 1346 1344 1343 1342 1339 1337 1336 1335 1334 1333 1332 1330 1329 1327 1326 1324 1323 1322 1322 1320 1317 1318 1318 1317 1315 1315 1315 1315 1315 1314 1315 1315
1341 1340 1340 1340 1339 1339 1339 1338 1336 1335 1333 1331 1331 1330 1329 1329 1328 1328 1326 1325 1324 1323 1322 1322 1319 1317 1315 1315 1315 1314 1312 1311 1312 1311 1310 1310 1311 1310
1329 1329 1330 1331 1331 1331 1331 1330 1329 1329 1328 1326 1325 1324 1324 1324 1323 1324 1323 1323 1322 1322 1321 1319 1317 1317 1316 1314 1313 1314 1312 1309 1309 1309 1309 1308 1308 1308
1322 1320 1320 1321 1322 1323 1323 1323 1323 1323 1322 1321 1320 1320 1319 1319 1319 1320 1320 1319 1319 1318 1317 1316 1315 1314 1314 1314 1311 1312 1310 1309 1307 1306 1306 1306 1306 1305
1312 1312 1312 1312 1314 1315 1316 1315 1316 1315 1315 1315 1315 1315 1314 1314 1315 1315 1315 1316 1316 1315 1315 1313 1312 1312 1311 1310 1309 1309 1308 1306 1304 1303 1302 1302 1303 1303
1303 1303 1302 1303 1305 1307 1308 1308 1308 1308 1309 1309 1310 1310 1310 1310 1311 1311 1311 1311 1312 1312 1311 1311 1309 1308 1308 1307 1307 1306 1305 1303 1301 1301 1301 1300 1301 1302
1294 1294 1293 1294 1296 1299 1300 1300 1300 1302 1302 1304 1304 1305 1306 1307 1307 1307 1308 1308 1308 1309 1307 1307 1306 1305 1304 1304 1304 1303 1301 1300 1299 1299 1299 1297 1298 1299